Weather History for Westhampton Beach, NY

Change the Weather History Date:

Tuesday, February 18, 2014

  Actual Average Record
Temperature  
Mean Temperature 24 °F -  
Max Temperature 39 °F 38 °F 53 °F (2008)
Min Temperature 10 °F 22 °F 10 °F (2001)
Degree Days  
Heating Degree Days 40    
Moisture  
Dew Point 29 °F    
Average Humidity 80    
Maximum Humidity 93    
Minimum Humidity 58    
Precipitation  
Precipitation 0.39 in - - ()
Sea Level Pressure  
Sea Level Pressure 30.08 in    
Wind  
Wind Speed 8 mph (SW)    
Max Wind Speed 16 mph    
Max Gust Speed 25 mph    
Visibility 6 miles    
Events Rain , Snow    
Averages and records for this station are not official NWS values.
T = Trace of Precipitation, MM = Missing Value Source: NWS Daily Summary

Daily Weather History Graph

Daily Weather History Graph

Search for Another Location

Airport:

Trip Planner

Search our weather history database for the weather conditions in past years. The results will help you decide how hot, cold, wet, or windy it might be!

Date:

Astronomy

Feb. 18, 2014 Rise Set
Actual Time 6:40 AM EST 5:28 PM EST
Civil Twilight 6:12 AM EST 5:56 PM EST
Nautical Twilight 5:40 AM EST 6:28 PM EST
Astronomical Twilight 5:08 AM EST 7:00 PM EST
Moon 9:21 PM EST (2/18) 8:09 AM EST (2/18)
Length of Visible Light 11h 44m
Length of Day
10h 48m
Waning Gibbous, 87% of the Moon is Illuminated
Feb 18
Waning Gibbous
Feb 22
Last Quarter
Mar 1
New
Mar 8
First Quarter
Mar 16
Full

Hourly Weather History & Observations

Time (EST) Temp. Windchill Dew Point Humidity Pressure Visibility Wind Dir Wind Speed Gust Speed Precip Events Conditions
12:53 AM 10.0 °F - 1.0 °F 67% 30.37 in 10.0 mi Calm Calm - N/A   Clear
1:53 AM 15.1 °F - 5.0 °F 64% 30.35 in 10.0 mi Calm Calm - N/A   Clear
2:53 AM 25.0 °F 16.3 °F 12.0 °F 58% 30.27 in 10.0 mi ENE 8.1 mph - N/A   Partly Cloudy
3:53 AM 25.0 °F 20.7 °F 12.0 °F 58% 30.30 in 10.0 mi North 3.5 mph - N/A   Overcast
4:53 AM 32.0 °F 25.6 °F 19.9 °F 61% 30.26 in 10.0 mi SSE 6.9 mph - N/A   Mostly Cloudy
5:53 AM 35.1 °F 27.4 °F 23.0 °F 61% 30.21 in 10.0 mi SE 10.4 mph - N/A   Mostly Cloudy
6:53 AM 36.0 °F 30.3 °F 25.0 °F 64% 30.20 in 10.0 mi SE 6.9 mph 16.1 mph N/A   Overcast
7:13 AM 35.6 °F 27.5 °F 26.6 °F 70% 30.20 in 1.5 mi SE 11.5 mph 18.4 mph 0.00 in Snow Light Snow
7:46 AM 33.8 °F 25.8 °F 28.4 °F 81% 30.19 in 0.8 mi SE 10.4 mph - 0.01 in Snow Light Snow
7:53 AM 34.0 °F 26.6 °F 28.0 °F 79% 30.19 in 0.8 mi SE 9.2 mph 16.1 mph 0.01 in Snow Light Snow
8:01 AM 33.8 °F 24.8 °F 28.4 °F 81% 30.18 in 0.8 mi SE 12.7 mph - 0.01 in Snow Light Snow
8:19 AM 33.8 °F 27.0 °F 30.2 °F 87% 30.17 in 1.2 mi SE 8.1 mph - 0.01 in Snow Light Snow
8:29 AM 33.8 °F 26.4 °F 30.2 °F 87% 30.17 in 3.0 mi SE 9.2 mph - 0.02 in Snow Light Snow
8:53 AM 35.1 °F 28.6 °F 30.9 °F 85% 30.16 in 2.5 mi SE 8.1 mph - 0.03 in Rain Rain
9:05 AM 35.6 °F 27.5 °F 32.0 °F 87% 30.14 in 3.0 mi SE 11.5 mph 18.4 mph 0.02 in Rain Rain
9:14 AM 35.6 °F 28.0 °F 32.0 °F 87% 30.13 in 2.5 mi ESE 10.4 mph 17.3 mph 0.04 in Rain Rain
9:23 AM 35.6 °F 27.1 °F 32.0 °F 87% 30.12 in 3.0 mi SE 12.7 mph 21.9 mph 0.05 in Rain Rain
9:50 AM 35.6 °F 27.1 °F 33.8 °F 93% 30.10 in 4.0 mi ESE 12.7 mph 21.9 mph 0.09 in Rain Light Rain
9:53 AM 36.0 °F 27.1 °F 32.0 °F 86% 30.10 in 4.0 mi SE 13.8 mph 21.9 mph 0.09 in Rain Light Rain
10:27 AM 37.4 °F 30.8 °F 33.8 °F 87% 30.08 in 6.0 mi SE 9.2 mph 17.3 mph 0.01 in Rain Light Rain
10:53 AM 37.0 °F 31.0 °F 34.0 °F 89% 30.07 in 4.0 mi SE 8.1 mph 17.3 mph 0.04 in Rain Light Rain
11:40 AM 37.4 °F 32.1 °F 35.6 °F 93% 29.98 in 2.0 mi East 6.9 mph - 0.07 in Rain Rain
11:53 AM 39.0 °F 32.8 °F 36.0 °F 89% 29.97 in 2.0 mi East 9.2 mph - 0.09 in Rain Light Rain
12:20 PM 39.2 °F 33.0 °F 37.4 °F 93% 29.96 in 2.0 mi WNW 9.2 mph - 0.03 in Rain Rain
12:25 PM 39.2 °F 33.0 °F 35.6 °F 87% 29.94 in 1.0 mi WSW 9.2 mph 20.7 mph 0.10 in Rain Heavy Rain
12:36 PM 39.2 °F 33.6 °F 37.4 °F 93% 29.94 in 3.0 mi WNW 8.1 mph - 0.11 in Rain Light Rain
12:43 PM 39.2 °F 30.5 °F 37.4 °F 93% 29.94 in 2.5 mi WNW 16.1 mph 25.3 mph 0.12 in Rain Light Rain
12:49 PM 35.6 °F 25.9 °F 33.8 °F 93% 29.94 in 3.0 mi NW 16.1 mph 25.3 mph 0.12 in Rain Light Rain
12:53 PM 35.1 °F 25.2 °F 32.0 °F 89% 29.94 in 5.0 mi NNW 16.1 mph 25.3 mph 0.12 in Rain Light Rain
1:26 PM 35.6 °F 27.1 °F 33.8 °F 93% 29.93 in 10.0 mi NNW 12.7 mph - 0.01 in   Overcast
1:48 PM 35.6 °F 28.6 °F 33.8 °F 93% 29.94 in 10.0 mi NNW 9.2 mph - 0.01 in   Overcast
1:53 PM 36.0 °F 29.0 °F 34.0 °F 93% 29.94 in 10.0 mi NNW 9.2 mph - 0.01 in   Mostly Cloudy
2:53 PM 37.9 °F 32.7 °F 33.1 °F 83% 29.95 in 10.0 mi WNW 6.9 mph - N/A   Overcast
3:04 PM 37.4 °F 32.8 °F 33.8 °F 87% 29.95 in 10.0 mi WNW 5.8 mph - N/A   Overcast
3:53 PM 39.0 °F 31.4 °F 33.1 °F 79% 29.95 in 10.0 mi WSW 12.7 mph - N/A   Overcast
4:00 PM 39.2 °F 32.0 °F 32.0 °F 75% 29.96 in 10.0 mi WSW 11.5 mph - N/A   Overcast
4:28 PM 37.4 °F 29.8 °F 30.2 °F 75% 29.98 in 9.0 mi West 11.5 mph - N/A   Overcast
4:41 PM 37.4 °F 29.3 °F 32.0 °F 81% 29.98 in 10.0 mi West 12.7 mph - N/A   Overcast
4:53 PM 37.0 °F 28.9 °F 30.9 °F 79% 29.98 in 10.0 mi West 12.7 mph - N/A   Scattered Clouds
5:53 PM 37.0 °F 31.0 °F 28.9 °F 73% 30.00 in 10.0 mi West 8.1 mph - N/A   Overcast
6:53 PM 36.0 °F 29.6 °F 27.0 °F 70% 30.03 in 10.0 mi West 8.1 mph - N/A   Clear
7:53 PM 35.1 °F 27.4 °F 25.0 °F 67% 30.07 in 10.0 mi West 10.4 mph - N/A   Clear
8:53 PM 33.1 °F 26.9 °F 24.1 °F 70% 30.09 in 10.0 mi West 6.9 mph - N/A   Clear
9:53 PM 32.0 °F 28.7 °F 23.0 °F 69% 30.10 in 10.0 mi West 3.5 mph - N/A   Clear
10:53 PM 30.0 °F 25.2 °F 21.9 °F 72% 30.11 in 9.0 mi West 4.6 mph - N/A   Clear
11:53 PM 26.1 °F - 19.9 °F 78% 30.11 in 7.0 mi Calm Calm - N/A   Clear